FW6147 Weather Reports


time (UTC)temp
C
wind
direction
speed
KPH
gust
KPH
rain 1hr
cm
rain 24hr
cm
rain mn
cm
humidity
%
barometer
mb
20260502212056 22 0 0.0 9.7 0.00 0.00 0.00 33 1019.4
20260502211557 22 44 3.2 9.7 0.00 0.00 0.00 34 1019.4
20260502211055 22 43 3.2 9.7 0.00 0.00 0.00 34 1019.5
20260502210554 22 0 0.0 9.7 0.00 0.00 0.00 32 1019.6
20260502210057 22 0 0.0 9.7 0.00 0.00 0.00 33 1019.7
20260502205555 22 52 1.6 9.7 0.00 0.00 0.00 34 1019.6
20260502205055 22 0 0.0 12.9 0.00 0.00 0.00 35 1019.8
20260502204602 22 0 1.6 12.9 0.00 0.00 0.00 35 1019.9
20260502204054 22 0 0.0 12.9 0.00 0.00 0.00 34 1019.9
20260502203556 22 110 3.2 14.5 0.00 0.00 0.00 35 1019.9
20260502203103 22 53 3.2 14.5 0.00 0.00 0.00 32 1019.9
20260502202556 22 77 6.4 16.1 0.00 0.00 0.00 34 1019.9
20260502202056 23 16 6.4 16.1 0.00 0.00 0.00 33 1020.0
20260502201556 23 0 4.8 16.1 0.00 0.00 0.00 35 1020.1
20260502201057 22 65 3.2 16.1 0.00 0.00 0.00 37 1020.1
20260502200556 22 83 1.6 19.3 0.00 0.00 0.00 37 1020.0
20260502200133 22 86 8.0 20.9 0.00 0.00 0.00 37 1020.1
20260502195553 22 145 11.3 20.9 0.00 0.00 0.00 37 1020.2
20260502195055 22 117 1.6 20.9 0.00 0.00 0.00 38 1020.2
20260502194607 22 88 12.9 20.9 0.00 0.00 0.00 39 1020.2
20260502194053 21 98 3.2 12.9 0.00 0.00 0.00 42 1020.3
20260502193554 21 157 0.0 11.3 0.00 0.00 0.00 41 1020.6
20260502193057 22 0 3.2 14.5 0.00 0.00 0.00 42 1020.6
20260502192556 22 56 4.8 17.7 0.00 0.00 0.00 41 1020.6
20260502192055 22 83 9.7 17.7 0.00 0.00 0.00 40 1020.7
20260502191605 22 0 3.2 19.3 0.00 0.00 0.00 39 1020.9
20260502191056 21 120 9.7 19.3 0.00 0.00 0.00 40 1020.9
20260502190555 21 93 8.0 17.7 0.00 0.00 0.00 41 1021.0
20260502190054 21 14 8.0 17.7 0.00 0.00 0.00 42 1021.0
20260502185556 21 88 4.8 14.5 0.00 0.00 0.00 42 1021.1
20260502185056 21 51 8.0 14.5 0.00 0.00 0.00 41 1021.1
20260502184554 21 96 8.0 19.3 0.00 0.00 0.00 40 1021.2
20260502184056 21 104 9.7 19.3 0.00 0.00 0.00 42 1021.4
20260502183554 21 0 0.0 9.7 0.00 0.00 0.00 42 1021.5
20260502183059 21 0 1.6 9.7 0.00 0.00 0.00 42 1021.5
20260502182556 20 0 0.0 19.3 0.00 0.00 0.00 43 1021.6
20260502182056 21 131 6.4 22.5 0.00 0.00 0.00 42 1021.7
20260502181555 21 0 9.7 22.5 0.00 0.00 0.00 43 1021.8
20260502181052 21 131 8.0 22.5 0.00 0.00 0.00 43 1021.8
20260502180555 21 86 8.0 24.1 0.00 0.00 0.00 44 1021.8
20260502164054 17 55 4.8 12.9 0.00 0.00 0.00 54 1022.2
20260502163554 17 30 6.4 12.9 0.00 0.00 0.00 55 1022.1
20260502163101 17 4 4.8 12.9 0.00 0.00 0.00 56 1022.2
20260502162556 17 66 4.8 14.5 0.00 0.00 0.00 55 1022.2
20260502162053 17 39 1.6 14.5 0.00 0.00 0.00 56 1022.2
20260502161605 17 53 6.4 14.5 0.00 0.00 0.00 55 1022.2
20260502161053 17 37 8.0 14.5 0.00 0.00 0.00 58 1022.2
20260502160557 16 31 9.7 19.3 0.00 0.00 0.00 60 1022.2
20260502160106 16 72 11.3 19.3 0.00 0.00 0.00 60 1022.2
20260502152055 16 83 9.7 20.9 0.00 0.00 0.00 57 1022.0
20260502151611 17 99 9.7 17.7 0.00 0.00 0.00 58 1021.8
20260502151055 17 98 9.7 17.7 0.00 0.00 0.00 59 1021.6
20260502150555 16 64 11.3 17.7 0.00 0.00 0.00 60 1021.6
20260502150130 16 49 9.7 16.1 0.00 0.00 0.00 64 1021.6
20260502130557 11 0 0.0 0.0 0.00 0.03 0.00 80 1020.1
20260502130105 11 0 0.0 0.0 0.00 0.03 0.00 80 1020.2
20260502123553 11 0 0.0 4.8 0.00 0.03 0.00 79 1019.9
20260502123054 11 0 0.0 9.7 0.00 0.03 0.00 79 1019.8
20260502122553 11 0 1.6 11.3 0.00 0.03 0.00 78 1019.7
20260502122054 11 0 1.6 11.3 0.00 0.03 0.00 78 1019.7
20260502121601 11 1 3.2 17.7 0.00 0.03 0.00 79 1019.7
20260502121056 11 0 1.6 17.7 0.00 0.03 0.00 79 1019.6
20260502120555 11 1 6.4 17.7 0.00 0.03 0.00 80 1019.6
20260502120112 11 0 1.6 17.7 0.00 0.03 0.00 80 1019.6
20260502115558 11 34 4.8 17.7 0.00 0.03 0.00 81 1019.5
20260502115055 11 0 0.0 4.8 0.00 0.03 0.00 81 1019.6
20260502114612 11 0 0.0 0.0 0.00 0.03 0.00 82 1019.5
20260502114055 11 0 0.0 0.0 0.00 0.03 0.00 83 1019.6
20260502113555 11 0 0.0 0.0 0.00 0.03 0.00 83 1019.5
20260502113114 11 0 0.0 0.0 0.00 0.03 0.00 83 1019.4
20260502112554 11 0 0.0 0.0 0.00 0.03 0.00 83 1019.4
20260502112054 11 0 0.0 4.8 0.00 0.03 0.00 82 1019.3
20260502111604 11 0 0.0 6.4 0.00 0.03 0.00 82 1019.3
20260502111058 11 0 0.0 6.4 0.00 0.03 0.00 82 1019.4
20260502110556 11 0 0.0 11.3 0.00 0.03 0.00 81 1019.3
20260502110104 12 0 1.6 11.3 0.00 0.03 0.00 81 1019.2
20260502105556 12 310 3.2 11.3 0.00 0.03 0.00 81 1019.2
20260502105055 12 301 3.2 11.3 0.00 0.03 0.00 81 1019.1
20260502104556 12 296 4.8 11.3 0.00 0.03 0.00 80 1019.1
20260502104057 12 299 1.6 11.3 0.00 0.03 0.00 80 1019.1
20260502103555 12 315 0.0 11.3 0.00 0.03 0.00 79 1019.1
20260502103112 12 304 4.8 11.3 0.00 0.03 0.00 79 1019.1
20260502102557 12 311 1.6 12.9 0.00 0.03 0.00 79 1019.1
20260502102055 12 309 4.8 12.9 0.00 0.03 0.00 79 1018.9
20260502101606 12 309 6.4 14.5 0.00 0.03 0.00 79 1018.9
20260502101055 12 316 8.0 14.5 0.00 0.03 0.00 79 1018.8
20260502100552 12 299 6.4 12.9 0.00 0.03 0.00 78 1018.8
20260502091054 12 310 6.4 12.9 0.00 0.03 0.00 75 1018.4
20260502090553 12 327 6.4 14.5 0.00 0.03 0.00 75 1018.3
20260502090108 12 330 6.4 14.5 0.00 0.03 0.00 75 1018.3
20260502071055 12 0 0.0 4.8 0.00 0.03 0.00 66 1018.2
20260502070555 12 0 0.0 4.8 0.00 0.03 0.00 65 1018.2
20260502065555 13 0 0.0 0.0 0.00 0.03 0.03 62 1018.2
20260502065055 13 0 0.0 0.0 0.00 0.03 0.03 61 1018.0
20260502064555 13 0 0.0 0.0 0.00 0.03 0.03 60 1018.1
20260502064055 14 0 0.0 0.0 0.00 0.03 0.03 58 1018.0
20260502063555 13 0 0.0 0.0 0.00 0.03 0.03 58 1018.0
20260502063121 13 0 0.0 0.0 0.00 0.03 0.03 61 1018.0
20260502062553 14 0 0.0 0.0 0.00 0.03 0.03 62 1018.0
20260502062053 14 0 0.0 0.0 0.00 0.03 0.03 59 1018.0
20260502061555 14 0 0.0 0.0 0.00 0.03 0.03 58 1017.9
20260502061054 15 0 0.0 0.0 0.00 0.03 0.03 58 1018.0
20260502060553 15 0 0.0 0.0 0.00 0.03 0.03 56 1017.8
20260502060106 15 0 0.0 0.0 0.00 0.03 0.03 56 1017.7
20260502055556 15 0 0.0 0.0 0.00 0.33 0.03 54 1017.7
20260502055056 15 0 0.0 0.0 0.00 0.33 0.03 51 1017.7
20260502054615 15 0 0.0 0.0 0.00 0.33 0.03 55 1017.6
20260502054053 15 0 0.0 0.0 0.00 0.33 0.03 53 1017.6
20260502053555 16 0 0.0 6.4 0.00 0.33 0.03 49 1017.6
20260502053101 16 0 0.0 6.4 0.00 0.33 0.03 46 1017.5
20260502052553 17 0 0.0 0.0 0.00 0.33 0.03 42 1017.4
20260502052053 17 0 0.0 0.0 0.00 0.33 0.03 39 1017.3
20260502051554 17 0 0.0 0.0 0.00 0.33 0.03 39 1017.3
20260502051055 16 0 0.0 0.0 0.00 0.33 0.03 41 1017.3
20260502050555 17 0 0.0 6.4 0.00 0.33 0.03 41 1017.2
20260502050054 17 0 1.6 6.4 0.00 0.33 0.03 40 1017.2
20260502045559 17 0 0.0 0.0 0.00 0.76 0.03 39 1017.1
20260502045052 17 0 0.0 1.6 0.00 0.76 0.03 37 1017.1
20260502044558 17 0 0.0 1.6 0.00 0.76 0.03 37 1017.1
20260502044057 17 0 0.0 0.0 0.00 0.76 0.03 39 1017.0
20260502043554 17 0 0.0 6.4 0.00 0.76 0.03 37 1017.0
20260502043107 18 0 0.0 6.4 0.00 0.76 0.03 37 1017.0
20260502042557 18 0 0.0 6.4 0.00 0.76 0.03 36 1017.0
20260502042056 18 0 0.0 4.8 0.00 0.76 0.03 34 1017.1
20260502041556 18 0 0.0 0.0 0.00 0.76 0.03 37 1017.1
20260502041055 18 0 0.0 0.0 0.00 0.76 0.03 35 1017.0
20260502040554 18 0 0.0 8.0 0.00 0.76 0.03 34 1016.8
20260502040055 18 0 0.0 8.0 0.00 0.76 0.03 33 1016.8
20260502035554 19 0 0.0 0.0 0.00 1.17 0.03 32 1016.8
20260502035055 20 0 0.0 0.0 0.00 1.17 0.03 31 1016.6
20260502034557 20 0 0.0 9.7 0.00 1.17 0.03 29 1016.6
20260502034054 19 0 0.0 12.9 0.00 1.17 0.03 29 1016.4
20260502033554 19 328 4.8 12.9 0.00 1.17 0.03 30 1016.4
20260502033052 18 0 0.0 0.0 0.00 1.17 0.03 34 1016.3
20260502032553 18 0 0.0 1.6 0.00 1.17 0.03 35 1016.3
20260502032055 18 0 0.0 1.6 0.00 1.17 0.03 36 1016.3
20260502031555 18 0 0.0 1.6 0.00 1.17 0.03 36 1016.2
20260502031054 18 0 0.0 0.0 0.00 1.17 0.03 36 1016.1
20260502030551 18 0 0.0 0.0 0.00 1.17 0.03 37 1016.2
20260502030106 19 0 0.0 0.0 0.00 1.17 0.03 34 1016.0
20260502025552 19 0 0.0 0.0 0.00 1.27 0.03 34 1016.0
20260502025057 19 0 0.0 1.6 0.00 1.27 0.03 33 1015.9
20260502024554 19 0 0.0 1.6 0.00 1.27 0.03 33 1015.9
20260502024055 19 0 0.0 1.6 0.00 1.27 0.03 34 1015.9
20260502023556 18 0 0.0 1.6 0.00 1.27 0.03 35 1015.8
20260502023057 18 0 0.0 1.6 0.00 1.27 0.03 36 1015.8
20260502022554 18 0 0.0 0.0 0.00 1.27 0.03 37 1015.8
20260502022054 19 0 0.0 0.0 0.00 1.27 0.03 37 1015.7
20260502021555 19 0 0.0 0.0 0.00 1.27 0.03 35 1015.6
20260502021056 20 0 0.0 0.0 0.00 1.27 0.03 35 1015.5
20260502020557 20 0 0.0 0.0 0.00 1.27 0.03 33 1015.5
20260502020054 20 0 0.0 4.8 0.00 1.27 0.03 33 1015.4
20260502015553 21 0 0.0 6.4 0.00 1.37 0.03 32 1015.4
20260502015055 21 0 0.0 11.3 0.00 1.37 0.03 30 1015.3
20260502014555 21 0 0.0 11.3 0.00 1.37 0.03 30 1015.3
20260502014052 22 0 0.0 9.7 0.00 1.37 0.03 30 1015.3
20260502013555 22 0 0.0 9.7 0.00 1.37 0.03 30 1015.2
20260502013057 22 0 1.6 12.9 0.00 1.37 0.03 28 1015.2
20260502012556 22 0 0.0 12.9 0.00 1.37 0.03 29 1015.2
20260502012055 23 302 1.6 11.3 0.00 1.37 0.03 27 1015.1
20260502011556 23 0 0.0 11.3 0.00 1.37 0.03 27 1015.0
20260502011054 23 0 3.2 11.3 0.00 1.37 0.03 27 1014.9
20260502010556 23 281 0.0 6.4 0.00 1.37 0.03 26 1015.0
20260502010126 23 0 0.0 11.3 0.00 1.37 0.03 26 1014.9
20260502005554 23 0 1.6 12.9 0.00 1.47 0.03 26 1014.9
20260502005057 23 268 0.0 12.9 0.00 1.47 0.03 28 1014.9
20260502004556 23 0 1.6 12.9 0.00 1.47 0.03 26 1014.9
20260502004054 24 283 0.0 12.9 0.00 1.47 0.03 26 1014.8
20260502003555 24 0 1.6 14.5 0.00 1.47 0.03 25 1014.7
20260502003059 24 0 4.8 14.5 0.00 1.47 0.03 27 1014.8
20260502002555 24 0 8.0 14.5 0.00 1.47 0.03 25 1014.8
20260502002055 24 0 0.0 4.8 0.00 1.47 0.03 27 1014.8
20260502001553 23 0 0.0 8.0 0.00 1.47 0.03 29 1014.7
20260502001052 23 0 1.6 8.0 0.00 1.47 0.03 26 1014.8
20260502000554 23 0 0.0 6.4 0.00 1.47 0.03 27 1014.6
20260502000057 24 0 0.0 6.4 0.00 1.47 0.03 26 1014.7
20260501235554 24 0 0.0 6.4 0.00 1.85 0.03 24 1014.8
20260501235055 24 0 0.0 9.7 0.00 1.85 0.03 24 1014.8
20260501234555 24 0 0.0 9.7 0.00 1.85 0.03 28 1014.7
20260501234053 24 0 4.8 9.7 0.00 1.85 0.03 23 1014.6
20260501233552 25 0 0.0 3.2 0.00 1.85 0.03 26 1014.7
20260501233058 25 0 0.0 6.4 0.00 1.85 0.03 28 1014.6
20260501232554 25 0 0.0 6.4 0.00 1.85 0.03 28 1014.7
20260501232052 25 0 0.0 6.4 0.00 1.85 0.03 31 1014.6
20260501231558 25 258 0.0 6.4 0.00 1.85 0.03 27 1014.7
20260501231052 24 283 0.0 8.0 0.00 1.85 0.03 32 1014.6
20260501230555 23 0 0.0 8.0 0.00 1.85 0.03 33 1014.7
20260501230059 23 359 0.0 12.9 0.00 1.85 0.03 29 1014.7
20260501225555 23 0 0.0 12.9 0.00 1.85 0.03 33 1014.7
20260501225053 23 0 6.4 12.9 0.00 1.85 0.03 31 1014.7
20260501224554 23 5 1.6 12.9 0.00 1.85 0.03 31 1014.7
20260501224053 24 0 0.0 8.0 0.00 1.85 0.03 33 1014.7
20260501223553 25 0 0.0 12.9 0.00 1.85 0.03 34 1014.7
20260501223107 24 0 0.0 12.9 0.00 1.85 0.03 32 1014.7
20260501222556 24 0 1.6 12.9 0.00 1.85 0.03 33 1014.8
20260501222055 24 0 0.0 8.0 0.00 1.85 0.03 33 1014.7
20260501221554 23 0 0.0 9.7 0.00 1.85 0.03 35 1014.7
20260501221056 23 0 0.0 12.9 0.00 1.85 0.03 35 1014.8
20260501220552 23 0 3.2 12.9 0.00 1.85 0.03 36 1014.9
20260501220054 23 115 0.0 11.3 0.00 1.85 0.03 37 1015.0
20260501215558 23 0 3.2 11.3 0.00 1.85 0.03 39 1015.1
20260501215057 22 0 0.0 1.6 0.00 1.85 0.03 40 1015.1
20260501214557 22 0 0.0 12.9 0.00 1.85 0.03 40 1015.3
20260501214055 21 0 0.0 12.9 0.00 1.85 0.03 40 1015.3
20260501213554 21 99 0.0 8.0 0.00 1.85 0.03 40 1015.3
20260501213108 22 30 0.0 8.0 0.00 1.85 0.03 40 1015.4
20260501212554 22 0 0.0 9.7 0.00 1.85 0.03 39 1015.5